Time,TemperatureF,DewpointF,PressureIn,WindDirection,WindDirectionDegrees,WindSpeedMPH,WindSpeedGustMPH,Humidity,HourlyPrecipIn,Conditions,Clouds,dailyrainin,SoftwareType,DateUTC
2013-05-17 00:01:00,60.8,36.3,29.86,West,260,6.9,6.9,40,0.00,CLR,,0.00,WeatherDisplay:10.37,2013-05-17 04:01:00,
2013-05-17 00:02:00,60.8,36.3,29.86,West,260,6.9,6.9,40,0.00,CLR,,0.00,WeatherDisplay:10.37,2013-05-17 04:02:00,
2013-05-17 00:07:00,60.6,36.1,29.86,West,260,6.9,6.9,40,0.00,CLR,,0.00,WeatherDisplay:10.37,2013-05-17 04:07:00,
2013-05-17 00:12:00,60.8,36.3,29.86,West,260,6.9,6.9,40,0.00,CLR,,0.00,WeatherDisplay:10.37,2013-05-17 04:12:00,
2013-05-17 00:17:00,60.3,41.5,29.86,NNE,20,10.4,10.4,50,0.00,CLR,,0.00,WeatherDisplay:10.37,2013-05-17 04:17:00,
2013-05-17 00:22:00,60.1,41.4,29.86,NNE,20,10.4,10.4,50,0.00,CLR,,0.00,WeatherDisplay:10.37,2013-05-17 04:22:00,
2013-05-17 00:27:00,59.9,41.2,29.86,NNE,20,10.4,10.4,50,0.00,CLR,,0.00,WeatherDisplay:10.37,2013-05-17 04:27:00,
2013-05-17 00:32:00,59.7,41.0,29.86,NNE,20,10.4,10.4,50,0.00,CLR,,0.00,WeatherDisplay:10.37,2013-05-17 04:32:00,
2013-05-17 00:37:00,59.4,40.7,29.86,NNE,20,10.4,10.4,50,0.00,CLR,,0.00,WeatherDisplay:10.37,2013-05-17 04:37:00,
2013-05-17 00:42:00,59.2,40.5,29.86,NNE,20,10.4,10.4,50,0.00,CLR,,0.00,WeatherDisplay:10.37,2013-05-17 04:42:00,
2013-05-17 00:47:00,58.8,40.2,29.86,NNE,20,10.4,10.4,50,0.00,CLR,,0.00,WeatherDisplay:10.37,2013-05-17 04:47:00,
2013-05-17 00:52:00,58.6,40.0,29.86,NNE,20,10.4,10.4,50,0.00,CLR,,0.00,WeatherDisplay:10.37,2013-05-17 04:52:00,
2013-05-17 00:57:00,58.6,40.0,29.86,NNE,20,10.4,10.4,50,0.00,CLR,,0.00,WeatherDisplay:10.37,2013-05-17 04:57:00,
2013-05-17 01:02:00,58.5,45.9,29.89,NNW,340,5.8,5.8,63,0.00,FEW,,0.00,WeatherDisplay:10.37,2013-05-17 05:02:00,
2013-05-17 01:07:00,58.3,45.7,29.89,NNW,340,5.8,5.8,63,0.00,FEW,,0.00,WeatherDisplay:10.37,2013-05-17 05:07:00,
2013-05-17 01:12:00,58.1,45.6,29.89,NNW,340,5.8,5.8,63,0.00,FEW,,0.00,WeatherDisplay:10.37,2013-05-17 05:12:00,
2013-05-17 01:17:00,57.9,45.4,29.86,NNW,340,5.8,5.8,63,0.00,FEW,,0.00,WeatherDisplay:10.37,2013-05-17 05:17:00,
2013-05-17 01:22:00,57.9,45.4,29.86,NNW,340,5.8,5.8,63,0.00,FEW,,0.00,WeatherDisplay:10.37,2013-05-17 05:22:00,
2013-05-17 01:27:00,57.7,45.2,29.86,NNW,340,5.8,5.8,63,0.00,FEW,,0.00,WeatherDisplay:10.37,2013-05-17 05:27:00,
2013-05-17 01:32:00,57.6,45.1,29.89,NNW,340,5.8,5.8,63,0.00,FEW,,0.00,WeatherDisplay:10.37,2013-05-17 05:32:00,
2013-05-17 01:37:00,57.7,45.2,29.89,NNW,340,5.8,5.8,63,0.00,FEW,,0.00,WeatherDisplay:10.37,2013-05-17 05:37:00,
2013-05-17 01:42:00,57.6,45.1,29.89,NNW,340,5.8,5.8,63,0.00,FEW,,0.00,WeatherDisplay:10.37,2013-05-17 05:42:00,
2013-05-17 01:47:00,57.6,45.1,29.89,NNW,340,5.8,5.8,63,0.00,FEW,,0.00,WeatherDisplay:10.37,2013-05-17 05:47:00,
2013-05-17 01:52:00,57.4,44.9,29.89,NNW,340,5.8,5.8,63,0.00,FEW,,0.00,WeatherDisplay:10.37,2013-05-17 05:52:00,
2013-05-17 01:57:00,57.4,44.9,29.89,NNW,340,5.8,5.8,63,0.00,FEW,,0.00,WeatherDisplay:10.37,2013-05-17 05:57:00,
2013-05-17 02:02:00,57.2,45.9,29.92,NNW,330,4.6,4.6,66,0.00,BKN,,0.00,WeatherDisplay:10.37,2013-05-17 06:02:00,
2013-05-17 02:07:00,57.0,45.8,29.92,NNW,330,4.6,4.6,66,0.00,BKN,,0.00,WeatherDisplay:10.37,2013-05-17 06:07:00,
2013-05-17 02:12:00,56.8,45.6,29.92,NNW,330,4.6,4.6,66,0.00,BKN,,0.00,WeatherDisplay:10.37,2013-05-17 06:12:00,
2013-05-17 02:17:00,56.8,45.6,29.92,NNW,330,4.6,4.6,66,0.00,BKN,,0.00,WeatherDisplay:10.37,2013-05-17 06:17:00,
2013-05-17 02:22:00,56.8,45.6,29.92,NNW,330,4.6,4.6,66,0.00,BKN,,0.00,WeatherDisplay:10.37,2013-05-17 06:22:00,
2013-05-17 02:27:00,56.8,45.6,29.92,NNW,330,4.6,4.6,66,0.00,BKN,,0.00,WeatherDisplay:10.37,2013-05-17 06:27:00,
2013-05-17 02:32:00,56.7,45.4,29.92,NNW,330,4.6,4.6,66,0.00,BKN,,0.00,WeatherDisplay:10.37,2013-05-17 06:32:00,
2013-05-17 02:37:00,56.3,45.1,29.92,NNW,330,4.6,4.6,66,0.00,BKN,,0.00,WeatherDisplay:10.37,2013-05-17 06:37:00,
2013-05-17 02:42:00,56.3,45.1,29.92,NNW,330,4.6,4.6,66,0.00,BKN,,0.00,WeatherDisplay:10.37,2013-05-17 06:42:00,
2013-05-17 02:47:00,56.1,44.9,29.92,NNW,330,4.6,4.6,66,0.00,BKN,,0.00,WeatherDisplay:10.37,2013-05-17 06:47:00,
2013-05-17 02:52:00,55.9,44.7,29.92,NNW,330,4.6,4.6,66,0.00,BKN,,0.00,WeatherDisplay:10.37,2013-05-17 06:52:00,
2013-05-17 02:57:00,56.1,44.9,29.92,NNW,330,4.6,4.6,66,0.00,BKN,,0.00,WeatherDisplay:10.37,2013-05-17 06:57:00,
2013-05-17 03:02:00,55.8,46.5,29.95,NNW,330,5.8,5.8,71,0.00,BKN,,0.00,WeatherDisplay:10.37,2013-05-17 07:02:00,
2013-05-17 03:07:00,55.8,46.5,29.95,NNW,330,5.8,5.8,71,0.00,BKN,,0.00,WeatherDisplay:10.37,2013-05-17 07:07:00,
2013-05-17 03:12:00,55.6,46.3,29.95,NNW,330,5.8,5.8,71,0.00,BKN,,0.00,WeatherDisplay:10.37,2013-05-17 07:12:00,
2013-05-17 03:17:00,55.4,46.2,29.92,NNW,330,5.8,5.8,71,0.00,BKN,,0.00,WeatherDisplay:10.37,2013-05-17 07:17:00,
2013-05-17 03:22:00,55.0,45.8,29.92,NNW,330,5.8,5.8,71,0.00,BKN,,0.00,WeatherDisplay:10.37,2013-05-17 07:22:00,
2013-05-17 03:28:00,54.9,45.6,29.92,NNW,330,5.8,5.8,71,0.00,BKN,,0.00,WeatherDisplay:10.37,2013-05-17 07:28:00,
2013-05-17 03:33:00,54.7,45.5,29.95,NNW,330,5.8,5.8,71,0.00,BKN,,0.00,WeatherDisplay:10.37,2013-05-17 07:33:00,
2013-05-17 03:38:00,54.5,45.3,29.95,NNW,330,5.8,5.8,71,0.00,BKN,,0.00,WeatherDisplay:10.37,2013-05-17 07:38:00,
2013-05-17 03:43:00,54.1,44.9,29.95,NNW,330,5.8,5.8,71,0.00,BKN,,0.00,WeatherDisplay:10.37,2013-05-17 07:43:00,
2013-05-17 03:48:00,54.0,44.8,29.95,NNW,330,5.8,5.8,71,0.00,BKN,,0.00,WeatherDisplay:10.37,2013-05-17 07:48:00,
2013-05-17 03:53:00,53.8,44.6,29.95,NNW,330,5.8,5.8,71,0.00,BKN,,0.00,WeatherDisplay:10.37,2013-05-17 07:53:00,
2013-05-17 03:58:00,53.6,44.4,29.95,NNW,330,5.8,5.8,71,0.00,BKN,,0.00,WeatherDisplay:10.37,2013-05-17 07:58:00,
2013-05-17 04:03:00,53.4,41.9,29.95,NNW,330,6.9,6.9,65,0.00,CLR,,0.00,WeatherDisplay:10.37,2013-05-17 08:03:00,
2013-05-17 04:08:00,53.2,41.8,29.95,NNW,330,6.9,6.9,65,0.00,CLR,,0.00,WeatherDisplay:10.37,2013-05-17 08:08:00,
2013-05-17 04:13:00,53.2,41.8,29.95,NNW,330,6.9,6.9,65,0.00,CLR,,0.00,WeatherDisplay:10.37,2013-05-17 08:13:00,
2013-05-17 04:18:00,53.1,41.6,29.95,NNW,330,6.9,6.9,65,0.00,CLR,,0.00,WeatherDisplay:10.37,2013-05-17 08:18:00,
2013-05-17 04:23:00,52.9,41.4,29.95,NNW,330,6.9,6.9,65,0.00,CLR,,0.00,WeatherDisplay:10.37,2013-05-17 08:23:00,
2013-05-17 04:28:00,52.7,41.3,29.95,NNW,330,6.9,6.9,65,0.00,CLR,,0.00,WeatherDisplay:10.37,2013-05-17 08:28:00,
2013-05-17 04:33:00,52.5,41.1,29.98,NNW,330,6.9,6.9,65,0.00,CLR,,0.00,WeatherDisplay:10.37,2013-05-17 08:33:00,
2013-05-17 04:38:00,52.7,41.3,29.98,NNW,330,6.9,6.9,65,0.00,CLR,,0.00,WeatherDisplay:10.37,2013-05-17 08:38:00,
2013-05-17 04:43:00,52.5,41.1,29.98,NNW,330,6.9,6.9,65,0.00,CLR,,0.00,WeatherDisplay:10.37,2013-05-17 08:43:00,
2013-05-17 04:48:00,52.5,41.1,30.01,NNW,330,6.9,6.9,65,0.00,CLR,,0.00,WeatherDisplay:10.37,2013-05-17 08:48:00,
2013-05-17 04:53:00,52.3,40.9,30.01,NNW,330,6.9,6.9,65,0.00,CLR,,0.00,WeatherDisplay:10.37,2013-05-17 08:53:00,
2013-05-17 04:58:00,52.0,40.6,30.01,NNW,330,6.9,6.9,65,0.00,CLR,,0.00,WeatherDisplay:10.37,2013-05-17 08:58:00,
2013-05-17 05:03:00,51.8,41.2,30.01,NNW,330,4.6,4.6,67,0.00,CLR,,0.00,WeatherDisplay:10.37,2013-05-17 09:03:00,
2013-05-17 05:08:00,51.8,41.2,30.01,NNW,330,4.6,4.6,67,0.00,CLR,,0.00,WeatherDisplay:10.37,2013-05-17 09:08:00,
2013-05-17 05:13:00,51.8,41.2,30.01,NNW,330,4.6,4.6,67,0.00,CLR,,0.00,WeatherDisplay:10.37,2013-05-17 09:13:00,
2013-05-17 05:18:00,51.6,41.0,29.98,NNW,330,4.6,4.6,67,0.00,CLR,,0.00,WeatherDisplay:10.37,2013-05-17 09:18:00,
2013-05-17 05:23:00,51.4,40.8,29.98,NNW,330,4.6,4.6,67,0.00,CLR,,0.00,WeatherDisplay:10.37,2013-05-17 09:23:00,
2013-05-17 05:28:00,51.4,40.8,29.98,NNW,330,4.6,4.6,67,0.00,CLR,,0.00,WeatherDisplay:10.37,2013-05-17 09:28:00,
2013-05-17 05:33:00,51.4,40.8,30.04,NNW,330,4.6,4.6,67,0.00,CLR,,0.00,WeatherDisplay:10.37,2013-05-17 09:33:00,
2013-05-17 05:38:00,51.4,40.8,30.04,NNW,330,4.6,4.6,67,0.00,CLR,,0.00,WeatherDisplay:10.37,2013-05-17 09:38:00,
2013-05-17 05:43:00,51.3,40.7,30.04,NNW,330,4.6,4.6,67,0.00,CLR,,0.00,WeatherDisplay:10.37,2013-05-17 09:43:00,
2013-05-17 05:48:00,51.4,40.8,30.04,NNW,330,4.6,4.6,67,0.00,CLR,,0.00,WeatherDisplay:10.37,2013-05-17 09:48:00,
2013-05-17 05:53:00,51.3,40.7,30.04,NNW,330,4.6,4.6,67,0.00,CLR,,0.00,WeatherDisplay:10.37,2013-05-17 09:53:00,
2013-05-17 05:58:00,51.1,40.5,30.04,NNW,330,4.6,4.6,67,0.00,CLR,,0.00,WeatherDisplay:10.37,2013-05-17 09:58:00,
2013-05-17 06:03:00,51.1,40.5,30.04,NNW,340,8.1,8.1,67,0.00,SCT,,0.00,WeatherDisplay:10.37,2013-05-17 10:03:00,
2013-05-17 06:08:00,51.3,40.7,30.04,NNW,340,8.1,8.1,67,0.00,SCT,,0.00,WeatherDisplay:10.37,2013-05-17 10:08:00,
2013-05-17 06:13:00,51.1,40.5,30.04,NNW,340,8.1,8.1,67,0.00,SCT,,0.00,WeatherDisplay:10.37,2013-05-17 10:13:00,
2013-05-17 06:18:00,51.1,40.5,30.04,NNW,340,8.1,8.1,67,0.00,SCT,,0.00,WeatherDisplay:10.37,2013-05-17 10:18:00,
2013-05-17 06:23:00,51.3,40.7,30.04,NNW,340,8.1,8.1,67,0.00,SCT,,0.00,WeatherDisplay:10.37,2013-05-17 10:23:00,
2013-05-17 06:28:00,51.1,40.5,30.04,NNW,340,8.1,8.1,67,0.00,SCT,,0.00,WeatherDisplay:10.37,2013-05-17 10:28:00,
2013-05-17 06:33:00,51.3,40.7,30.10,NNW,340,8.1,8.1,67,0.00,SCT,,0.00,WeatherDisplay:10.37,2013-05-17 10:33:00,
2013-05-17 06:38:00,51.4,40.8,30.10,NNW,340,8.1,8.1,67,0.00,SCT,,0.00,WeatherDisplay:10.37,2013-05-17 10:38:00,
2013-05-17 06:43:00,51.4,40.8,30.10,NNW,340,8.1,8.1,67,0.00,SCT,,0.00,WeatherDisplay:10.37,2013-05-17 10:43:00,
2013-05-17 06:48:00,51.4,40.8,30.10,NNW,340,8.1,8.1,67,0.00,SCT,,0.00,WeatherDisplay:10.37,2013-05-17 10:48:00,
2013-05-17 06:53:00,51.6,41.0,30.10,NNW,340,8.1,8.1,67,0.00,SCT,,0.00,WeatherDisplay:10.37,2013-05-17 10:53:00,
2013-05-17 06:58:00,51.6,41.0,30.10,NNW,340,8.1,8.1,67,0.00,SCT,,0.00,WeatherDisplay:10.37,2013-05-17 10:58:00,
2013-05-17 07:03:00,51.8,39.6,30.07,NW,320,6.9,6.9,63,0.00,BKN,,0.00,WeatherDisplay:10.37,2013-05-17 11:03:00,
2013-05-17 07:08:00,52.0,39.8,30.07,NW,320,6.9,6.9,63,0.00,BKN,,0.00,WeatherDisplay:10.37,2013-05-17 11:08:00,
2013-05-17 07:13:00,52.0,39.8,30.07,NW,320,6.9,6.9,63,0.00,BKN,,0.00,WeatherDisplay:10.37,2013-05-17 11:13:00,
2013-05-17 07:18:00,52.0,39.8,30.13,NW,320,6.9,6.9,63,0.00,BKN,,0.00,WeatherDisplay:10.37,2013-05-17 11:18:00,
2013-05-17 07:23:00,52.2,39.9,30.13,NW,320,6.9,6.9,63,0.00,BKN,,0.00,WeatherDisplay:10.37,2013-05-17 11:23:00,
2013-05-17 07:28:00,52.2,39.9,30.13,NW,320,6.9,6.9,63,0.00,BKN,,0.00,WeatherDisplay:10.37,2013-05-17 11:28:00,
2013-05-17 07:33:00,52.3,40.1,30.13,NW,320,6.9,6.9,63,0.00,BKN,,0.00,WeatherDisplay:10.37,2013-05-17 11:33:00,
2013-05-17 07:38:00,52.5,40.3,30.13,NW,320,6.9,6.9,63,0.00,BKN,,0.00,WeatherDisplay:10.37,2013-05-17 11:38:00,
2013-05-17 07:43:00,52.5,40.3,30.13,NW,320,6.9,6.9,63,0.00,BKN,,0.00,WeatherDisplay:10.37,2013-05-17 11:43:00,
2013-05-17 07:48:00,52.5,40.3,30.13,NW,320,6.9,6.9,63,0.00,BKN,,0.00,WeatherDisplay:10.37,2013-05-17 11:48:00,
2013-05-17 07:53:00,52.7,40.5,30.13,NW,320,6.9,6.9,63,0.00,BKN,,0.00,WeatherDisplay:10.37,2013-05-17 11:53:00,
2013-05-17 07:58:00,52.9,40.6,30.13,NW,320,6.9,6.9,63,0.00,BKN,,0.00,WeatherDisplay:10.37,2013-05-17 11:58:00,
2013-05-17 08:03:00,53.1,40.0,30.13,WNW,300,11.5,11.5,61,0.00,BKN,,0.00,WeatherDisplay:10.37,2013-05-17 12:03:00,
2013-05-17 08:08:00,53.4,40.3,30.13,WNW,300,11.5,11.5,61,0.00,BKN,,0.00,WeatherDisplay:10.37,2013-05-17 12:08:00,
2013-05-17 08:13:00,53.8,40.6,30.13,WNW,300,11.5,11.5,61,0.00,BKN,,0.00,WeatherDisplay:10.37,2013-05-17 12:13:00,
2013-05-17 08:18:00,54.1,41.0,30.19,WNW,300,11.5,11.5,61,0.00,BKN,,0.00,WeatherDisplay:10.37,2013-05-17 12:18:00,
2013-05-17 08:23:00,54.1,41.0,30.19,WNW,300,11.5,11.5,61,0.00,BKN,,0.00,WeatherDisplay:10.37,2013-05-17 12:23:00,
2013-05-17 08:28:00,54.7,41.5,30.19,WNW,300,11.5,11.5,61,0.00,BKN,,0.00,WeatherDisplay:10.37,2013-05-17 12:28:00,
2013-05-17 08:33:00,55.0,41.8,30.16,WNW,300,11.5,11.5,61,0.00,BKN,,0.00,WeatherDisplay:10.37,2013-05-17 12:33:00,
2013-05-17 08:38:00,55.2,42.0,30.16,WNW,300,11.5,11.5,61,0.00,BKN,,0.00,WeatherDisplay:10.37,2013-05-17 12:38:00,
2013-05-17 08:43:00,55.6,42.3,30.16,WNW,300,11.5,11.5,61,0.00,BKN,,0.00,WeatherDisplay:10.37,2013-05-17 12:43:00,
2013-05-17 08:48:00,55.9,42.7,30.16,WNW,300,11.5,11.5,61,0.00,BKN,,0.00,WeatherDisplay:10.37,2013-05-17 12:48:00,
2013-05-17 08:53:00,56.3,43.0,30.16,WNW,300,11.5,11.5,61,0.00,BKN,,0.00,WeatherDisplay:10.37,2013-05-17 12:53:00,
2013-05-17 08:58:00,56.5,43.2,30.16,WNW,300,11.5,11.5,61,0.00,BKN,,0.00,WeatherDisplay:10.37,2013-05-17 12:58:00,
2013-05-17 09:03:00,57.2,43.9,30.19,WNW,300,11.5,11.5,61,0.00,BKN,,0.00,WeatherDisplay:10.37,2013-05-17 13:03:00,
2013-05-17 09:08:00,57.6,44.2,30.19,WNW,300,11.5,11.5,61,0.00,BKN,,0.00,WeatherDisplay:10.37,2013-05-17 13:08:00,
2013-05-17 09:13:00,58.1,44.7,30.19,WNW,300,11.5,11.5,61,0.00,BKN,,0.00,WeatherDisplay:10.37,2013-05-17 13:13:00,
2013-05-17 09:18:00,58.1,39.5,30.16,North,350,11.5,24.2,50,0.00,BKN,,0.00,WeatherDisplay:10.37,2013-05-17 13:18:00,
2013-05-17 09:23:00,58.1,39.5,30.16,North,350,11.5,24.2,50,0.00,BKN,,0.00,WeatherDisplay:10.37,2013-05-17 13:23:00,
2013-05-17 09:28:00,58.5,39.9,30.16,North,350,11.5,24.2,50,0.00,BKN,,0.00,WeatherDisplay:10.37,2013-05-17 13:28:00,
2013-05-17 09:33:00,58.5,39.9,30.13,North,350,11.5,24.2,50,0.00,BKN,,0.00,WeatherDisplay:10.37,2013-05-17 13:33:00,
2013-05-17 09:38:00,58.6,40.0,30.13,North,350,11.5,24.2,50,0.00,BKN,,0.00,WeatherDisplay:10.37,2013-05-17 13:38:00,
2013-05-17 09:43:00,58.8,40.2,30.13,North,350,11.5,24.2,50,0.00,BKN,,0.00,WeatherDisplay:10.37,2013-05-17 13:43:00,
2013-05-17 09:48:00,59.0,40.4,30.22,North,350,11.5,24.2,50,0.00,BKN,,0.00,WeatherDisplay:10.37,2013-05-17 13:48:00,
2013-05-17 09:53:00,58.8,40.2,30.22,North,350,11.5,24.2,50,0.00,BKN,,0.00,WeatherDisplay:10.37,2013-05-17 13:53:00,
2013-05-17 09:58:00,59.4,40.7,30.22,North,350,11.5,24.2,50,0.00,BKN,,0.00,WeatherDisplay:10.37,2013-05-17 13:58:00,
2013-05-17 10:03:00,59.9,42.2,30.25,NW,310,9.2,9.2,52,0.00,BKN,,0.00,WeatherDisplay:10.37,2013-05-17 14:03:00,
2013-05-17 10:08:00,60.1,42.4,30.25,NW,310,9.2,9.2,52,0.00,BKN,,0.00,WeatherDisplay:10.37,2013-05-17 14:08:00,
2013-05-17 10:13:00,60.4,42.7,30.25,NW,310,9.2,9.2,52,0.00,BKN,,0.00,WeatherDisplay:10.37,2013-05-17 14:13:00,
2013-05-17 10:18:00,60.6,42.9,30.25,NW,310,9.2,9.2,52,0.00,BKN,,0.00,WeatherDisplay:10.37,2013-05-17 14:18:00,
2013-05-17 10:23:00,60.6,42.9,30.25,NW,310,9.2,9.2,52,0.00,BKN,,0.00,WeatherDisplay:10.37,2013-05-17 14:23:00,
2013-05-17 10:28:00,60.6,42.9,30.25,NW,310,9.2,9.2,52,0.00,BKN,,0.00,WeatherDisplay:10.37,2013-05-17 14:28:00,
2013-05-17 10:33:00,60.6,42.9,30.25,NW,310,9.2,9.2,52,0.00,BKN,,0.00,WeatherDisplay:10.37,2013-05-17 14:33:00,
2013-05-17 10:38:00,60.1,42.4,30.25,NW,310,9.2,9.2,52,0.00,BKN,,0.00,WeatherDisplay:10.37,2013-05-17 14:38:00,
2013-05-17 10:43:00,60.6,42.9,30.25,NW,310,9.2,9.2,52,0.00,BKN,,0.00,WeatherDisplay:10.37,2013-05-17 14:43:00,
2013-05-17 10:48:00,60.6,42.9,30.28,NW,310,9.2,9.2,52,0.00,BKN,,0.00,WeatherDisplay:10.37,2013-05-17 14:48:00,
2013-05-17 10:53:00,61.7,43.9,30.28,NW,310,9.2,9.2,52,0.00,BKN,,0.00,WeatherDisplay:10.37,2013-05-17 14:53:00,
2013-05-17 10:58:00,61.7,43.9,30.28,NW,310,9.2,9.2,52,0.00,BKN,,0.00,WeatherDisplay:10.37,2013-05-17 14:58:00,
2013-05-17 11:03:00,61.7,41.3,30.31,NW,310,8.1,8.1,47,0.00,BKN,,0.00,WeatherDisplay:10.37,2013-05-17 15:03:00,
2013-05-17 11:08:00,61.7,41.3,30.31,NW,310,8.1,8.1,47,0.00,BKN,,0.00,WeatherDisplay:10.37,2013-05-17 15:08:00,
2013-05-17 11:13:00,62.1,41.6,30.31,NW,310,8.1,8.1,47,0.00,BKN,,0.00,WeatherDisplay:10.37,2013-05-17 15:13:00,
2013-05-17 11:18:00,62.1,41.6,30.37,NW,310,8.1,8.1,47,0.00,BKN,,0.00,WeatherDisplay:10.37,2013-05-17 15:18:00,
2013-05-17 11:23:00,62.2,41.7,30.37,NW,310,8.1,8.1,47,0.00,BKN,,0.00,WeatherDisplay:10.37,2013-05-17 15:23:00,
2013-05-17 11:28:00,63.0,42.4,30.37,NW,310,8.1,8.1,47,0.00,BKN,,0.00,WeatherDisplay:10.37,2013-05-17 15:28:00,
2013-05-17 11:33:00,63.0,42.4,30.22,NW,310,8.1,8.1,47,0.00,BKN,,0.00,WeatherDisplay:10.37,2013-05-17 15:33:00,
2013-05-17 11:38:00,63.0,42.4,30.22,NW,310,8.1,8.1,47,0.00,BKN,,0.00,WeatherDisplay:10.37,2013-05-17 15:38:00,
2013-05-17 11:43:00,63.0,42.4,30.22,NW,310,8.1,8.1,47,0.00,BKN,,0.00,WeatherDisplay:10.37,2013-05-17 15:43:00,
2013-05-17 11:48:00,63.7,43.1,30.37,NW,310,8.1,8.1,47,0.00,BKN,,0.00,WeatherDisplay:10.37,2013-05-17 15:48:00,
2013-05-17 11:53:00,63.7,43.1,30.37,NW,310,8.1,8.1,47,0.00,BKN,,0.00,WeatherDisplay:10.37,2013-05-17 15:53:00,
2013-05-17 11:58:00,63.7,43.1,30.37,NW,310,8.1,8.1,47,0.00,BKN,,0.00,WeatherDisplay:10.37,2013-05-17 15:58:00,
2013-05-17 12:03:00,63.7,40.1,30.28,NW,320,9.2,9.2,42,0.00,SCT,,0.00,WeatherDisplay:10.37,2013-05-17 16:03:00,
2013-05-17 12:08:00,63.7,40.1,30.28,NW,320,9.2,9.2,42,0.00,SCT,,0.00,WeatherDisplay:10.37,2013-05-17 16:08:00,
2013-05-17 12:13:00,63.7,40.1,30.28,NW,320,9.2,9.2,42,0.00,SCT,,0.00,WeatherDisplay:10.37,2013-05-17 16:13:00,
2013-05-17 12:18:00,63.7,40.1,30.34,NW,320,9.2,9.2,42,0.00,SCT,,0.00,WeatherDisplay:10.37,2013-05-17 16:18:00,
2013-05-17 12:23:00,63.7,40.1,30.34,NW,320,9.2,9.2,42,0.00,SCT,,0.00,WeatherDisplay:10.37,2013-05-17 16:23:00,
2013-05-17 12:28:00,63.7,40.1,30.34,NW,320,9.2,9.2,42,0.00,SCT,,0.00,WeatherDisplay:10.37,2013-05-17 16:28:00,
2013-05-17 12:33:00,63.7,40.1,30.22,NW,320,9.2,9.2,42,0.00,SCT,,0.00,WeatherDisplay:10.37,2013-05-17 16:33:00,
2013-05-17 12:38:00,63.7,40.1,30.22,NW,320,9.2,9.2,42,0.00,SCT,,0.00,WeatherDisplay:10.37,2013-05-17 16:38:00,
2013-05-17 12:43:00,63.7,40.1,30.22,NW,320,9.2,9.2,42,0.00,SCT,,0.00,WeatherDisplay:10.37,2013-05-17 16:43:00,
2013-05-17 12:48:00,63.7,40.1,30.25,NW,320,9.2,9.2,42,0.00,SCT,,0.00,WeatherDisplay:10.37,2013-05-17 16:48:00,
2013-05-17 12:53:00,63.7,40.1,30.25,NW,320,9.2,9.2,42,0.00,SCT,,0.00,WeatherDisplay:10.37,2013-05-17 16:53:00,
2013-05-17 12:58:00,63.7,40.1,30.25,NW,320,9.2,9.2,42,0.00,SCT,,0.00,WeatherDisplay:10.37,2013-05-17 16:58:00,
2013-05-17 13:03:00,63.7,39.5,30.34,NNW,330,8.1,8.1,41,0.00,BKN,,0.00,WeatherDisplay:10.37,2013-05-17 17:03:00,
2013-05-17 13:08:00,63.7,39.5,30.34,NNW,330,8.1,8.1,41,0.00,BKN,,0.00,WeatherDisplay:10.37,2013-05-17 17:08:00,
2013-05-17 13:13:00,66.2,41.8,30.34,NNW,330,8.1,8.1,41,0.00,BKN,,0.00,WeatherDisplay:10.37,2013-05-17 17:13:00,
2013-05-17 13:18:00,66.4,42.0,30.31,NNW,330,8.1,8.1,41,0.00,BKN,,0.00,WeatherDisplay:10.37,2013-05-17 17:18:00,
2013-05-17 13:23:00,66.4,42.0,30.31,NNW,330,8.1,8.1,41,0.00,BKN,,0.00,WeatherDisplay:10.37,2013-05-17 17:23:00,
2013-05-17 13:28:00,66.4,42.0,30.31,NNW,330,8.1,8.1,41,0.00,BKN,,0.00,WeatherDisplay:10.37,2013-05-17 17:28:00,
2013-05-17 13:33:00,66.4,42.0,30.28,NNW,330,8.1,8.1,41,0.00,BKN,,0.00,WeatherDisplay:10.37,2013-05-17 17:33:00,
2013-05-17 13:38:00,66.6,42.1,30.28,NNW,330,8.1,8.1,41,0.00,BKN,,0.00,WeatherDisplay:10.37,2013-05-17 17:38:00,
2013-05-17 13:43:00,66.7,42.3,30.28,NNW,330,8.1,8.1,41,0.00,BKN,,0.00,WeatherDisplay:10.37,2013-05-17 17:43:00,
2013-05-17 13:48:00,66.9,42.4,30.19,NNW,330,8.1,8.1,41,0.00,BKN,,0.00,WeatherDisplay:10.37,2013-05-17 17:48:00,
2013-05-17 13:53:00,67.3,42.8,30.19,NNW,330,8.1,8.1,41,0.00,BKN,,0.00,WeatherDisplay:10.37,2013-05-17 17:53:00,
2013-05-17 13:58:00,67.3,42.8,30.19,NNW,330,8.1,8.1,41,0.00,BKN,,0.00,WeatherDisplay:10.37,2013-05-17 17:58:00,
2013-05-17 14:03:00,67.8,40.6,30.28,NNE,30,8.1,8.1,37,0.00,BKN,,0.00,WeatherDisplay:10.37,2013-05-17 18:03:00,
2013-05-17 14:08:00,68.0,40.7,30.28,NNE,30,8.1,8.1,37,0.00,BKN,,0.00,WeatherDisplay:10.37,2013-05-17 18:08:00,
2013-05-17 14:13:00,68.4,41.1,30.28,NNE,30,8.1,8.1,37,0.00,BKN,,0.00,WeatherDisplay:10.37,2013-05-17 18:13:00,
2013-05-17 14:18:00,68.7,41.4,30.22,NNE,30,8.1,8.1,37,0.00,BKN,,0.00,WeatherDisplay:10.37,2013-05-17 18:18:00,
2013-05-17 14:23:00,68.9,41.5,30.22,NNE,30,8.1,8.1,37,0.00,BKN,,0.00,WeatherDisplay:10.37,2013-05-17 18:23:00,
2013-05-17 14:28:00,68.7,41.4,30.22,NNE,30,8.1,8.1,37,0.00,BKN,,0.00,WeatherDisplay:10.37,2013-05-17 18:28:00,
2013-05-17 14:33:00,68.5,41.2,30.19,NNE,30,8.1,8.1,37,0.00,BKN,,0.00,WeatherDisplay:10.37,2013-05-17 18:33:00,
2013-05-17 14:38:00,68.0,40.7,30.19,NNE,30,8.1,8.1,37,0.00,BKN,,0.00,WeatherDisplay:10.37,2013-05-17 18:38:00,
2013-05-17 14:43:00,68.0,40.7,30.19,NNE,30,8.1,8.1,37,0.00,BKN,,0.00,WeatherDisplay:10.37,2013-05-17 18:43:00,
2013-05-17 14:48:00,67.5,40.3,30.22,NNE,30,8.1,8.1,37,0.00,BKN,,0.00,WeatherDisplay:10.37,2013-05-17 18:48:00,
2013-05-17 14:53:00,67.5,40.3,30.22,NNE,30,8.1,8.1,37,0.00,BKN,,0.00,WeatherDisplay:10.37,2013-05-17 18:53:00,
2013-05-17 14:58:00,67.1,39.9,30.22,NNE,30,8.1,8.1,37,0.00,BKN,,0.00,WeatherDisplay:10.37,2013-05-17 18:58:00,
2013-05-17 15:03:00,67.3,37.9,30.16,NNE,30,8.1,8.1,34,0.00,SCT,,0.00,WeatherDisplay:10.37,2013-05-17 19:03:00,
2013-05-17 15:08:00,67.5,38.1,30.16,NNE,30,8.1,8.1,34,0.00,SCT,,0.00,WeatherDisplay:10.37,2013-05-17 19:08:00,
2013-05-17 15:13:00,67.6,38.3,30.16,NNE,30,8.1,8.1,34,0.00,SCT,,0.00,WeatherDisplay:10.37,2013-05-17 19:13:00,
2013-05-17 15:18:00,67.6,38.3,30.19,NNE,30,8.1,8.1,34,0.00,SCT,,0.00,WeatherDisplay:10.37,2013-05-17 19:18:00,
2013-05-17 15:23:00,67.6,38.3,30.19,NNE,30,8.1,8.1,34,0.00,SCT,,0.00,WeatherDisplay:10.37,2013-05-17 19:23:00,
2013-05-17 15:28:00,67.6,38.3,30.19,NNE,30,8.1,8.1,34,0.00,SCT,,0.00,WeatherDisplay:10.37,2013-05-17 19:28:00,
2013-05-17 15:33:00,67.5,38.1,30.19,NNE,30,8.1,8.1,34,0.00,SCT,,0.00,WeatherDisplay:10.37,2013-05-17 19:33:00,
2013-05-17 15:38:00,67.3,37.9,30.19,NNE,30,8.1,8.1,34,0.00,SCT,,0.00,WeatherDisplay:10.37,2013-05-17 19:38:00,
2013-05-17 15:43:00,67.3,37.9,30.19,NNE,30,8.1,8.1,34,0.00,SCT,,0.00,WeatherDisplay:10.37,2013-05-17 19:43:00,
2013-05-17 15:48:00,67.3,37.9,30.16,NNE,30,8.1,8.1,34,0.00,SCT,,0.00,WeatherDisplay:10.37,2013-05-17 19:48:00,
2013-05-17 15:53:00,67.6,38.3,30.16,NNE,30,8.1,8.1,34,0.00,SCT,,0.00,WeatherDisplay:10.37,2013-05-17 19:53:00,
2013-05-17 15:58:00,67.6,38.3,30.16,NNE,30,8.1,8.1,34,0.00,SCT,,0.00,WeatherDisplay:10.37,2013-05-17 19:58:00,
2013-05-17 16:03:00,67.6,35.1,30.16,NNE,30,8.1,8.1,30,0.00,BKN,,0.00,WeatherDisplay:10.37,2013-05-17 20:03:00,
2013-05-17 16:08:00,67.8,35.2,30.16,NNE,30,8.1,8.1,30,0.00,BKN,,0.00,WeatherDisplay:10.37,2013-05-17 20:08:00,
2013-05-17 16:13:00,67.6,35.1,30.16,NNE,30,8.1,8.1,30,0.00,BKN,,0.00,WeatherDisplay:10.37,2013-05-17 20:13:00,
2013-05-17 16:18:00,68.0,35.4,30.16,NNE,30,8.1,8.1,30,0.00,BKN,,0.00,WeatherDisplay:10.37,2013-05-17 20:18:00,
2013-05-17 16:23:00,67.8,35.2,30.16,NNE,30,8.1,8.1,30,0.00,BKN,,0.00,WeatherDisplay:10.37,2013-05-17 20:23:00,
2013-05-17 16:28:00,67.6,35.1,30.16,NNE,30,8.1,8.1,30,0.00,BKN,,0.00,WeatherDisplay:10.37,2013-05-17 20:28:00,
2013-05-17 16:33:00,67.5,34.9,30.16,NNE,30,8.1,8.1,30,0.00,BKN,,0.00,WeatherDisplay:10.37,2013-05-17 20:33:00,
2013-05-17 16:38:00,67.5,34.9,30.16,NNE,30,8.1,8.1,30,0.00,BKN,,0.00,WeatherDisplay:10.37,2013-05-17 20:38:00,
2013-05-17 16:43:00,67.3,34.8,30.16,NNE,30,8.1,8.1,30,0.00,BKN,,0.00,WeatherDisplay:10.37,2013-05-17 20:43:00,
2013-05-17 16:48:00,67.1,34.6,30.13,NNE,30,8.1,8.1,30,0.00,BKN,,0.00,WeatherDisplay:10.37,2013-05-17 20:48:00,
2013-05-17 16:53:00,67.5,34.9,30.13,NNE,30,8.1,8.1,30,0.00,BKN,,0.00,WeatherDisplay:10.37,2013-05-17 20:53:00,
2013-05-17 16:58:00,67.6,35.1,30.13,NNE,30,8.1,8.1,30,0.00,BKN,,0.00,WeatherDisplay:10.37,2013-05-17 20:58:00,
2013-05-17 17:03:00,67.3,35.6,30.16,NE,50,8.1,8.1,31,0.00,BKN,,0.00,WeatherDisplay:10.37,2013-05-17 21:03:00,
2013-05-17 17:08:00,67.3,35.6,30.16,NE,50,8.1,8.1,31,0.00,BKN,,0.00,WeatherDisplay:10.37,2013-05-17 21:08:00,
2013-05-17 17:13:00,67.3,35.6,30.16,NE,50,8.1,8.1,31,0.00,BKN,,0.00,WeatherDisplay:10.37,2013-05-17 21:13:00,
2013-05-17 17:18:00,67.1,35.4,30.16,NE,50,8.1,8.1,31,0.00,BKN,,0.00,WeatherDisplay:10.37,2013-05-17 21:18:00,
2013-05-17 17:23:00,66.9,35.3,30.16,NE,50,8.1,8.1,31,0.00,BKN,,0.00,WeatherDisplay:10.37,2013-05-17 21:23:00,
2013-05-17 17:28:00,66.9,35.3,30.16,NE,50,8.1,8.1,31,0.00,BKN,,0.00,WeatherDisplay:10.37,2013-05-17 21:28:00,
2013-05-17 17:33:00,66.9,35.3,30.10,NE,50,8.1,8.1,31,0.00,BKN,,0.00,WeatherDisplay:10.37,2013-05-17 21:33:00,
2013-05-17 17:38:00,67.1,35.4,30.10,NE,50,8.1,8.1,31,0.00,BKN,,0.00,WeatherDisplay:10.37,2013-05-17 21:38:00,
2013-05-17 17:43:00,66.9,35.3,30.10,NE,50,8.1,8.1,31,0.00,BKN,,0.00,WeatherDisplay:10.37,2013-05-17 21:43:00,
2013-05-17 17:48:00,67.1,35.4,30.16,NE,50,8.1,8.1,31,0.00,BKN,,0.00,WeatherDisplay:10.37,2013-05-17 21:48:00,
2013-05-17 17:53:00,67.1,35.4,30.16,NE,50,8.1,8.1,31,0.00,BKN,,0.00,WeatherDisplay:10.37,2013-05-17 21:53:00,
2013-05-17 17:58:00,67.1,35.4,30.16,NE,50,8.1,8.1,31,0.00,BKN,,0.00,WeatherDisplay:10.37,2013-05-17 21:58:00,
2013-05-17 18:03:00,66.9,35.3,30.16,ENE,70,3.5,3.5,31,0.00,SCT,,0.00,WeatherDisplay:10.37,2013-05-17 22:03:00,
2013-05-17 18:08:00,66.9,35.3,30.16,ENE,70,3.5,3.5,31,0.00,SCT,,0.00,WeatherDisplay:10.37,2013-05-17 22:08:00,
2013-05-17 18:13:00,66.9,35.3,30.16,ENE,70,3.5,3.5,31,0.00,SCT,,0.00,WeatherDisplay:10.37,2013-05-17 22:13:00,
2013-05-17 18:18:00,66.9,35.3,30.16,ENE,70,3.5,3.5,31,0.00,SCT,,0.00,WeatherDisplay:10.37,2013-05-17 22:18:00,
2013-05-17 18:23:00,66.9,35.3,30.16,ENE,70,3.5,3.5,31,0.00,SCT,,0.00,WeatherDisplay:10.37,2013-05-17 22:23:00,
2013-05-17 18:28:00,66.7,35.1,30.16,ENE,70,3.5,3.5,31,0.00,SCT,,0.00,WeatherDisplay:10.37,2013-05-17 22:28:00,
2013-05-17 18:33:00,66.6,35.0,30.19,ENE,70,3.5,3.5,31,0.00,SCT,,0.00,WeatherDisplay:10.37,2013-05-17 22:33:00,
2013-05-17 18:38:00,66.6,35.0,30.19,ENE,70,3.5,3.5,31,0.00,SCT,,0.00,WeatherDisplay:10.37,2013-05-17 22:38:00,
2013-05-17 18:43:00,66.4,34.8,30.19,ENE,70,3.5,3.5,31,0.00,SCT,,0.00,WeatherDisplay:10.37,2013-05-17 22:43:00,
2013-05-17 18:48:00,66.4,34.8,30.16,ENE,70,3.5,3.5,31,0.00,SCT,,0.00,WeatherDisplay:10.37,2013-05-17 22:48:00,
2013-05-17 18:53:00,66.4,34.8,30.16,ENE,70,3.5,3.5,31,0.00,SCT,,0.00,WeatherDisplay:10.37,2013-05-17 22:53:00,
2013-05-17 18:58:00,66.4,34.8,30.16,ENE,70,3.5,3.5,31,0.00,SCT,,0.00,WeatherDisplay:10.37,2013-05-17 22:58:00,
2013-05-17 19:03:00,66.2,34.7,30.10,ENE,70,3.5,3.5,31,0.00,SCT,,0.00,WeatherDisplay:10.37,2013-05-17 23:03:00,
2013-05-17 19:08:00,66.2,34.7,30.10,ENE,70,3.5,3.5,31,0.00,SCT,,0.00,WeatherDisplay:10.37,2013-05-17 23:08:00,
2013-05-17 19:13:00,65.8,34.3,30.10,ENE,70,3.5,3.5,31,0.00,SCT,,0.00,WeatherDisplay:10.37,2013-05-17 23:13:00,
2013-05-17 19:18:00,65.7,36.5,30.16,NE,50,8.1,8.1,34,0.00,SCT,,0.00,WeatherDisplay:10.37,2013-05-17 23:18:00,
2013-05-17 19:23:00,65.7,36.5,30.16,NE,50,8.1,8.1,34,0.00,SCT,,0.00,WeatherDisplay:10.37,2013-05-17 23:23:00,
2013-05-17 19:28:00,65.7,36.5,30.16,NE,50,8.1,8.1,34,0.00,SCT,,0.00,WeatherDisplay:10.37,2013-05-17 23:28:00,
2013-05-17 19:33:00,65.7,36.5,30.13,NE,50,8.1,8.1,34,0.00,SCT,,0.00,WeatherDisplay:10.37,2013-05-17 23:33:00,
2013-05-17 19:38:00,65.1,36.0,30.13,NE,50,8.1,8.1,34,0.00,SCT,,0.00,WeatherDisplay:10.37,2013-05-17 23:38:00,
2013-05-17 19:43:00,64.9,35.9,30.13,NE,50,8.1,8.1,34,0.00,SCT,,0.00,WeatherDisplay:10.37,2013-05-17 23:43:00,
2013-05-17 19:48:00,64.6,35.6,30.13,NE,50,8.1,8.1,34,0.00,SCT,,0.00,WeatherDisplay:10.37,2013-05-17 23:48:00,
2013-05-17 19:53:00,64.2,35.2,30.13,NE,50,8.1,8.1,34,0.00,SCT,,0.00,WeatherDisplay:10.37,2013-05-17 23:53:00,
2013-05-17 19:58:00,64.0,35.1,30.13,NE,50,8.1,8.1,34,0.00,SCT,,0.00,WeatherDisplay:10.37,2013-05-17 23:58:00,
2013-05-17 20:03:00,63.5,37.4,30.16,ENE,60,5.8,5.8,38,0.00,SCT,,0.00,WeatherDisplay:10.37,2013-05-18 00:03:00,
2013-05-17 20:08:00,63.1,37.1,30.16,ENE,60,5.8,5.8,38,0.00,SCT,,0.00,WeatherDisplay:10.37,2013-05-18 00:08:00,
2013-05-17 20:13:00,63.0,36.9,30.16,ENE,60,5.8,5.8,38,0.00,SCT,,0.00,WeatherDisplay:10.37,2013-05-18 00:13:00,
2013-05-17 20:18:00,62.8,36.8,30.16,ENE,60,5.8,5.8,38,0.00,SCT,,0.00,WeatherDisplay:10.37,2013-05-18 00:18:00,
2013-05-17 20:23:00,62.2,36.3,30.16,ENE,60,5.8,5.8,38,0.00,SCT,,0.00,WeatherDisplay:10.37,2013-05-18 00:23:00,
2013-05-17 20:28:00,62.1,36.1,30.16,ENE,60,5.8,5.8,38,0.00,SCT,,0.00,WeatherDisplay:10.37,2013-05-18 00:28:00,
2013-05-17 20:33:00,61.7,35.8,30.22,ENE,60,5.8,5.8,38,0.00,SCT,,0.00,WeatherDisplay:10.37,2013-05-18 00:33:00,
2013-05-17 20:38:00,61.3,35.5,30.22,ENE,60,5.8,5.8,38,0.00,SCT,,0.00,WeatherDisplay:10.37,2013-05-18 00:38:00,
2013-05-17 20:43:00,61.2,35.3,30.22,ENE,60,5.8,5.8,38,0.00,SCT,,0.00,WeatherDisplay:10.37,2013-05-18 00:43:00,
2013-05-17 20:48:00,60.6,34.9,30.19,ENE,60,5.8,5.8,38,0.00,SCT,,0.00,WeatherDisplay:10.37,2013-05-18 00:48:00,
2013-05-17 20:53:00,60.3,34.5,30.19,ENE,60,5.8,5.8,38,0.00,SCT,,0.00,WeatherDisplay:10.37,2013-05-18 00:53:00,
2013-05-17 20:58:00,59.9,34.2,30.19,ENE,60,5.8,5.8,38,0.00,SCT,,0.00,WeatherDisplay:10.37,2013-05-18 00:58:00,
2013-05-17 21:03:00,59.7,38.3,30.19,ENE,60,0.0,0.0,45,0.00,SCT,,0.00,WeatherDisplay:10.37,2013-05-18 01:03:00,
2013-05-17 21:08:00,59.7,38.3,30.19,ENE,60,0.0,0.0,45,0.00,SCT,,0.00,WeatherDisplay:10.37,2013-05-18 01:08:00,
2013-05-17 21:13:00,59.2,37.8,30.19,ENE,60,0.0,0.0,45,0.00,SCT,,0.00,WeatherDisplay:10.37,2013-05-18 01:13:00,
2013-05-17 21:18:00,59.0,37.7,30.25,ENE,60,0.0,0.0,45,0.00,SCT,,0.00,WeatherDisplay:10.37,2013-05-18 01:18:00,
2013-05-17 21:23:00,58.6,37.3,30.25,ENE,60,0.0,0.0,45,0.00,SCT,,0.00,WeatherDisplay:10.37,2013-05-18 01:23:00,
2013-05-17 21:28:00,58.5,37.2,30.25,ENE,60,0.0,0.0,45,0.00,SCT,,0.00,WeatherDisplay:10.37,2013-05-18 01:28:00,
2013-05-17 21:33:00,58.1,36.9,30.28,ENE,60,0.0,0.0,45,0.00,SCT,,0.00,WeatherDisplay:10.37,2013-05-18 01:33:00,
2013-05-17 21:38:00,57.6,36.4,30.28,ENE,60,0.0,0.0,45,0.00,SCT,,0.00,WeatherDisplay:10.37,2013-05-18 01:38:00,
2013-05-17 21:43:00,57.4,36.2,30.28,ENE,60,0.0,0.0,45,0.00,SCT,,0.00,WeatherDisplay:10.37,2013-05-18 01:43:00,
2013-05-17 21:48:00,57.2,36.0,30.25,ENE,60,0.0,0.0,45,0.00,SCT,,0.00,WeatherDisplay:10.37,2013-05-18 01:48:00,
2013-05-17 21:53:00,56.8,35.7,30.25,ENE,60,0.0,0.0,45,0.00,SCT,,0.00,WeatherDisplay:10.37,2013-05-18 01:53:00,
2013-05-17 21:58:00,56.8,35.7,30.25,ENE,60,0.0,0.0,45,0.00,SCT,,0.00,WeatherDisplay:10.37,2013-05-18 01:58:00,
2013-05-17 22:03:00,56.7,40.2,30.22,ENE,60,0.0,0.0,54,0.00,SCT,,0.00,WeatherDisplay:10.37,2013-05-18 02:03:00,
2013-05-17 22:08:00,56.7,40.2,30.22,ENE,60,0.0,0.0,54,0.00,SCT,,0.00,WeatherDisplay:10.37,2013-05-18 02:08:00,
2013-05-17 22:13:00,56.1,39.7,30.22,ENE,60,0.0,0.0,54,0.00,SCT,,0.00,WeatherDisplay:10.37,2013-05-18 02:13:00,
2013-05-17 22:18:00,56.1,39.7,30.25,ENE,60,0.0,0.0,54,0.00,SCT,,0.00,WeatherDisplay:10.37,2013-05-18 02:18:00,
2013-05-17 22:23:00,55.9,39.5,30.25,ENE,60,0.0,0.0,54,0.00,SCT,,0.00,WeatherDisplay:10.37,2013-05-18 02:23:00,
2013-05-17 22:28:00,55.8,39.4,30.25,ENE,60,0.0,0.0,54,0.00,SCT,,0.00,WeatherDisplay:10.37,2013-05-18 02:28:00,
2013-05-17 22:33:00,55.6,39.2,30.28,ENE,60,0.0,0.0,54,0.00,SCT,,0.00,WeatherDisplay:10.37,2013-05-18 02:33:00,
2013-05-17 22:38:00,55.4,39.0,30.28,ENE,60,0.0,0.0,54,0.00,SCT,,0.00,WeatherDisplay:10.37,2013-05-18 02:38:00,
2013-05-17 22:43:00,55.2,38.9,30.28,ENE,60,0.0,0.0,54,0.00,SCT,,0.00,WeatherDisplay:10.37,2013-05-18 02:43:00,
2013-05-17 22:48:00,55.0,38.7,30.25,ENE,60,0.0,0.0,54,0.00,SCT,,0.00,WeatherDisplay:10.37,2013-05-18 02:48:00,
2013-05-17 22:53:00,55.0,38.7,30.25,ENE,60,0.0,0.0,54,0.00,SCT,,0.00,WeatherDisplay:10.37,2013-05-18 02:53:00,
2013-05-17 22:58:00,55.0,38.7,30.25,ENE,60,0.0,0.0,54,0.00,SCT,,0.00,WeatherDisplay:10.37,2013-05-18 02:58:00,
2013-05-17 23:03:00,54.5,45.3,30.34,ENE,60,0.0,0.0,71,0.00,BKN,,0.00,WeatherDisplay:10.37,2013-05-18 03:03:00,
2013-05-17 23:09:00,54.5,45.3,30.34,ENE,60,0.0,0.0,71,0.00,BKN,,0.00,WeatherDisplay:10.37,2013-05-18 03:09:00,
2013-05-17 23:14:00,54.3,45.1,30.34,ENE,60,0.0,0.0,71,0.00,BKN,,0.00,WeatherDisplay:10.37,2013-05-18 03:14:00,
2013-05-17 23:19:00,54.0,44.8,30.28,ENE,60,0.0,0.0,71,0.00,BKN,,0.00,WeatherDisplay:10.37,2013-05-18 03:19:00,
2013-05-17 23:24:00,54.0,44.8,30.28,ENE,60,0.0,0.0,71,0.00,BKN,,0.00,WeatherDisplay:10.37,2013-05-18 03:24:00,
2013-05-17 23:29:00,53.8,44.6,30.28,ENE,60,0.0,0.0,71,0.00,BKN,,0.00,WeatherDisplay:10.37,2013-05-18 03:29:00,
2013-05-17 23:34:00,53.4,44.2,30.34,ENE,60,0.0,0.0,71,0.00,BKN,,0.00,WeatherDisplay:10.37,2013-05-18 03:34:00,
2013-05-17 23:39:00,53.4,44.2,30.34,ENE,60,0.0,0.0,71,0.00,BKN,,0.00,WeatherDisplay:10.37,2013-05-18 03:39:00,
2013-05-17 23:44:00,53.6,44.4,30.34,ENE,60,0.0,0.0,71,0.00,BKN,,0.00,WeatherDisplay:10.37,2013-05-18 03:44:00,
2013-05-17 23:49:00,53.1,43.9,30.37,ENE,60,0.0,0.0,71,0.00,BKN,,0.00,WeatherDisplay:10.37,2013-05-18 03:49:00,
2013-05-17 23:54:00,52.7,43.6,30.37,ENE,60,0.0,0.0,71,0.00,BKN,,0.00,WeatherDisplay:10.37,2013-05-18 03:54:00,
2013-05-17 23:59:00,52.9,43.7,30.37,ENE,60,0.0,0.0,71,0.00,BKN,,0.00,WeatherDisplay:10.37,2013-05-18 03:59:00,